sat.trackr.live / text

‹ back to catalog

STARLINK-30381

NORAD 57785 · 2023-134Q

PAYLOAD ACTIVE UNKNOWN

§ Identity

Operator
Country
US
Launch date
2023-09-04
Launch site
AFETR
Launch vehicle
Mass (kg)
RCS (m²)

Purposes: comms

External: N2YO · Heavens-Above · Gunter

§ Orbital elements

Epoch: 2026-05-24T23:27:14.634144Z

Period
94.27 min
Inclination
43.0032°
Eccentricity
0.0001293
Mean motion
15.27581536 rev/d
Perigee alt
482.2 km
Apogee alt
483.9 km
Semi-major
6,861.2 km
B*
1.1178e-4
RAAN
123.5883°
Arg perigee
276.5558°
Mean anomaly
83.5146°
Rev number
15,117

§ Raw data

STARLINK-303811 57785U 23134Q   26144.97725271  .00002815  00000+0  11178-3 0  99982 57785  43.0032 123.5883 0001293 276.5558  83.5146 15.27581536151174

JSON: /api/v1/satellites/57785 · /tle

For live sub-satellite position, see the globe view (requires WebGL).

§ Visibility from observer

Set your observer location to see the next 7 days of passes ≥ 10°. The values pass through the URL so the page stays shareable.

No JS? Fill the form by hand. The geolocation button needs JavaScript.